Torna al catalogo

SL-6 R/B(2)

AttivoHEO
NORAD 25850·ROCKET BODY·🇷🇺 Russia

Lanciato Jul 8, 1999 da Plesetsk Cosmodrome

Loading…

Prossimi Passaggi (prossime 24 ore)

TLE

AggiornatoSource: Space-Track

Epoca: Sep 13, 2026, 17:39 UTC

1 25850U 99036D   26256.73545943 -.00000592  00000-0  00000-0 0  9995
2 25850  63.7685 194.6666 6798782 281.0395  14.7462  1.96702287195090

Traccia SL-6 R/B(2) in tempo reale con AllMySat

Download on the App Store